Find Starlink 35035

NORAD ID: 65407 Int'l Des: 2025-192 Owner: SPXS Country: US Constellation: starlink operational
LEOCIRCULAR

Aktuelle Ansicht

3D-Globus wird geladen...

Über Starlink 35035

Beschreibung wird geladen...

Nächste Überflüge

Passes for default location (London). Set your location on the main map for personalized predictions.

Höhenverlauf

Loading altitude history...

Zweizeiliger Elementsatz

1 65407U 25192D 26150.20248212 .00017175 00000-0 59045-3 0 9993
2 65407 53.1570 213.7779 0001263 100.8187 259.2956 15.30210886 41870
Epoch: 30. Mai 2026 • Age: 8 hours

Aktueller Status

Höhe 488.7 km
Geschwindigkeit 7.62 km/s
Subsatellitenpunkt -39.10°S, 99.92°E
Startdatum 31. Aug. 2025
Alter 0.7 years
Typ internet

Technische Details

Klassifizierung Payload
Masse 575.00 kg
Trockenmasse 530.00 kg
Gesamtmasse 575.00 kg
Länge 0.30 m
Durchmesser 4.10 m
Spannweite 29.00 m
Form Box + pan
Hersteller SPXS
Bus-Typ Starlink V2MO
Phasenstatus In Orbit
Besitzer/Staat SPXS/US

Most Searched